• In Uzbekistan
  • List of Countries
  • For 7 days
  • Water Temperature
  • Satellite Maps
  • Weather Map
  • Weather Widgets
  • user-avatar
    Login

    Hourly Weather Algiers

    Today, 24 April, Monday

    Time Temperature Precipitation Wind Pressure Humidity
    00:00 +15°C° 0 mm 2 mps 749 mmHg 47%
    01:00 +15°C° 0 mm 2 mps 749 mmHg 43%
    02:00 +14°C° 0 mm 3 mps 748 mmHg 39%
    03:00 +14°C° 0 mm 3 mps 748 mmHg 34%
    04:00 +14°C° 0 mm 3 mps 748 mmHg 37%
    05:00 +15°C° 0 mm 2 mps 748 mmHg 40%
    06:00 +17°C° 0 mm 2 mps 748 mmHg 44%
    07:00 +19°C° 0 mm 2 mps 748 mmHg 40%
    08:00 +23°C° 0 mm 1 mps 748 mmHg 36%
    09:00 +25°C° 0 mm 1 mps 748 mmHg 31%
    10:00 +26°C° 0 mm 2 mps 748 mmHg 31%
    11:00 +27°C° 0 mm 2 mps 748 mmHg 30%
    12:00 +28°C° 0 mm 3 mps 748 mmHg 30%
    13:00 +28°C° 0 mm 3 mps 747 mmHg 32%
    14:00 +27°C° 0 mm 4 mps 747 mmHg 34%
    15:00 +27°C° 0 mm 4 mps 747 mmHg 37%
    16:00 +25°C° 0 mm 4 mps 746 mmHg 45%
    17:00 +22°C° 0 mm 3 mps 746 mmHg 54%
    18:00 +20°C° 0 mm 3 mps 746 mmHg 62%
    19:00 +18°C° 0 mm 3 mps 746 mmHg 67%
    20:00 +17°C° 0 mm 3 mps 746 mmHg 72%
    21:00 +15°C° 0 mm 2 mps 747 mmHg 76%
    22:00 +16°C° 0 mm 2 mps 746 mmHg 74%
    23:00 +16°C° 0 mm 2 mps 746 mmHg 71%

    Tomorrow, 25 April, Tuesday

    Time Temperature Precipitation Wind Pressure Humidity
    00:00 +16°C° 0 mm 2 mps 746 mmHg 69%
    01:00 +16°C° 0 mm 2 mps 746 mmHg 68%
    02:00 +16°C° 0 mm 2 mps 745 mmHg 67%
    03:00 +15°C° 0 mm 2 mps 745 mmHg 66%
    04:00 +16°C° 0 mm 2 mps 745 mmHg 63%
    05:00 +18°C° 0 mm 1 mps 745 mmHg 59%
    06:00 +19°C° 0 mm 1 mps 745 mmHg 56%
    07:00 +20°C° 0 mm 2 mps 745 mmHg 51%
    08:00 +22°C° 0 mm 3 mps 745 mmHg 47%
    09:00 +25°C° 0 mm 3 mps 746 mmHg 43%
    10:00 +26°C° 0 mm 4 mps 745 mmHg 43%
    11:00 +26°C° 0 mm 4 mps 745 mmHg 43%
    12:00 +27°C° 0 mm 4 mps 745 mmHg 43%
    13:00 +26°C° 0 mm 4 mps 744 mmHg 47%
    14:00 +26°C° 0 mm 4 mps 744 mmHg 52%
    15:00 +25°C° 0 mm 4 mps 744 mmHg 57%
    16:00 +22°C° 0.3 mm 3 mps 744 mmHg 65%
    17:00 +21°C° 0.3 mm 2 mps 744 mmHg 73%
    18:00 +20°C° 0.3 mm 1 mps 744 mmHg 81%
    19:00 +19°C° 0 mm 1 mps 744 mmHg 82%
    20:00 +18°C° 0 mm 1 mps 744 mmHg 84%
    21:00 +16°C° 0 mm 2 mps 745 mmHg 86%
    22:00 +17°C° 0 mm 2 mps 744 mmHg 84%
    23:00 +17°C° 0 mm 2 mps 744 mmHg 83%

    Day after tomorrow, 26 April, Wednesday

    Time Temperature Precipitation Wind Pressure Humidity
    00:00 +17°C° 0 mm 2 mps 744 mmHg 82%
    01:00 +16°C° 0 mm 2 mps 744 mmHg 82%
    02:00 +16°C° 0 mm 2 mps 743 mmHg 82%
    03:00 +15°C° 0 mm 2 mps 743 mmHg 82%
    04:00 +16°C° 0 mm 2 mps 743 mmHg 79%
    05:00 +17°C° 0 mm 3 mps 743 mmHg 76%
    06:00 +18°C° 0 mm 3 mps 743 mmHg 74%
    07:00 +20°C° 0 mm 3 mps 744 mmHg 65%
    08:00 +24°C° 0 mm 3 mps 744 mmHg 57%
    09:00 +26°C° 0 mm 4 mps 744 mmHg 48%
    10:00 +27°C° 0 mm 4 mps 744 mmHg 47%
    11:00 +27°C° 0 mm 5 mps 744 mmHg 46%
    12:00 +28°C° 0 mm 6 mps 744 mmHg 45%
    13:00 +27°C° 0.1 mm 5 mps 744 mmHg 49%
    14:00 +26°C° 0.1 mm 4 mps 744 mmHg 53%
    15:00 +25°C° 0.1 mm 4 mps 743 mmHg 58%
    16:00 +24°C° 0.1 mm 3 mps 744 mmHg 66%
    17:00 +21°C° 0.1 mm 2 mps 744 mmHg 73%
    18:00 +21°C° 0.1 mm 1 mps 744 mmHg 81%
    19:00 +19°C° 0.1 mm 1 mps 744 mmHg 85%
    20:00 +18°C° 0.1 mm 1 mps 745 mmHg 88%
    21:00 +16°C° 0.1 mm 1 mps 745 mmHg 92%
    22:00 +16°C° 0.1 mm 1 mps 745 mmHg 91%
    23:00 +16°C° 0.1 mm 1 mps 745 mmHg 90%

    27 April, Thursday

    Time Temperature Precipitation Wind Pressure Humidity
    00:00 +16°C° 0.1 mm 1 mps 744 mmHg 89%
    01:00 +16°C° 0 mm 1 mps 744 mmHg 89%
    02:00 +16°C° 0 mm 1 mps 744 mmHg 88%
    03:00 +16°C° 0 mm 1 mps 744 mmHg 88%
    04:00 +16°C° 0 mm 1 mps 744 mmHg 87%
    05:00 +18°C° 0 mm 1 mps 744 mmHg 86%
    06:00 +18°C° 0 mm 1 mps 744 mmHg 85%
    07:00 +20°C° 0 mm 1 mps 744 mmHg 75%
    08:00 +23°C° 0 mm 1 mps 744 mmHg 65%
    09:00 +25°C° 0 mm 1 mps 744 mmHg 55%
    10:00 +25°C° 0 mm 2 mps 744 mmHg 54%
    11:00 +25°C° 0 mm 3 mps 745 mmHg 53%
    12:00 +26°C° 0 mm 3 mps 745 mmHg 53%
    13:00 +25°C° 0 mm 4 mps 745 mmHg 56%
    14:00 +23°C° 0 mm 4 mps 745 mmHg 59%
    15:00 +22°C° 0 mm 5 mps 745 mmHg 61%
    16:00 +21°C° 0 mm 6 mps 745 mmHg 70%
    17:00 +19°C° 0 mm 6 mps 746 mmHg 78%
    18:00 +17°C° 0 mm 7 mps 747 mmHg 86%
    19:00 +16°C° 0.1 mm 7 mps 748 mmHg 89%
    20:00 +16°C° 0.1 mm 7 mps 748 mmHg 91%
    21:00 +15°C° 0.1 mm 6 mps 749 mmHg 93%
    22:00 +15°C° 0 mm 6 mps 749 mmHg 93%
    23:00 +15°C° 0 mm 6 mps 749 mmHg 93%

    28 April, Friday

    Time Temperature Precipitation Wind Pressure Humidity
    00:00 +14°C° 0 mm 6 mps 749 mmHg 93%
    01:00 +14°C° 0 mm 6 mps 749 mmHg 93%
    02:00 +14°C° 0 mm 6 mps 749 mmHg 94%
    03:00 +14°C° 0 mm 6 mps 748 mmHg 94%
    04:00 +14°C° 0 mm 6 mps 749 mmHg 93%
    05:00 +13°C° 0 mm 6 mps 749 mmHg 92%
    06:00 +12°C° 0 mm 7 mps 749 mmHg 91%
    07:00 +14°C° 0 mm 7 mps 749 mmHg 86%
    08:00 +15°C° 0 mm 7 mps 749 mmHg 80%
    09:00 +15°C° 0 mm 7 mps 749 mmHg 75%
    10:00 +17°C° 0 mm 7 mps 749 mmHg 70%
    11:00 +18°C° 0 mm 7 mps 749 mmHg 64%
    12:00 +20°C° 0 mm 7 mps 749 mmHg 59%
    13:00 +20°C° 0 mm 8 mps 748 mmHg 59%
    14:00 +20°C° 0 mm 8 mps 748 mmHg 59%
    15:00 +21°C° 0 mm 8 mps 748 mmHg 60%
    16:00 +18°C° 0.1 mm 8 mps 748 mmHg 65%
    17:00 +17°C° 0.1 mm 8 mps 748 mmHg 70%
    18:00 +16°C° 0.1 mm 8 mps 748 mmHg 75%
    19:00 +15°C° 0.1 mm 7 mps 749 mmHg 79%
    20:00 +14°C° 0.1 mm 7 mps 749 mmHg 82%
    21:00 +14°C° 0.1 mm 7 mps 749 mmHg 86%
    22:00 +13°C° 0.1 mm 6 mps 749 mmHg 88%
    23:00 +13°C° 0.1 mm 6 mps 749 mmHg 89%

    29 April, Saturday

    Time Temperature Precipitation Wind Pressure Humidity
    00:00 +13°C° 0.1 mm 5 mps 748 mmHg 91%
    01:00 +12°C° 0 mm 5 mps 748 mmHg 91%
    02:00 +12°C° 0 mm 5 mps 748 mmHg 92%
    03:00 +10°C° 0 mm 5 mps 748 mmHg 92%
    04:00 +12°C° 0.1 mm 5 mps 748 mmHg 91%
    05:00 +13°C° 0.1 mm 5 mps 748 mmHg 89%
    06:00 +14°C° 0.1 mm 5 mps 748 mmHg 88%
    07:00 +18°C° 0.1 mm 4 mps 748 mmHg 80%
    08:00 +20°C° 0.1 mm 4 mps 748 mmHg 73%
    09:00 +22°C° 0.1 mm 4 mps 748 mmHg 65%
    10:00 +23°C° 0.2 mm 4 mps 748 mmHg 63%
    11:00 +23°C° 0.2 mm 5 mps 747 mmHg 61%
    12:00 +25°C° 0.2 mm 5 mps 747 mmHg 59%
    13:00 +24°C° 0.2 mm 6 mps 747 mmHg 60%
    14:00 +24°C° 0.2 mm 6 mps 746 mmHg 61%
    15:00 +24°C° 0.2 mm 6 mps 746 mmHg 61%
    16:00 +23°C° 0.3 mm 5 mps 746 mmHg 67%
    17:00 +21°C° 0.3 mm 5 mps 746 mmHg 73%
    18:00 +20°C° 0.3 mm 4 mps 746 mmHg 79%
    19:00 +19°C° 0.3 mm 4 mps 746 mmHg 83%
    20:00 +18°C° 0.3 mm 4 mps 747 mmHg 87%
    21:00 +16°C° 0.3 mm 3 mps 747 mmHg 90%
    22:00 +16°C° 0.1 mm 3 mps 746 mmHg 89%
    23:00 +16°C° 0.1 mm 3 mps 746 mmHg 89%
    Show more